Regional Weather Roundup
Issued by NWS

Home | Current Version | Previous Version | Graphics & Text | Print | Product List | Glossary Off
Versions: 1 2 3 4 5 6 7 8 9 10 11 12 13 14 15 16 17 18 19 20 21 22 23 24 25 26 27 28 29 30 31 32 33 34 35 36 37 38 39 40 41 42 43 44 45 46 47 48 49 50

783
ASUS43 KMKX 220020
RWRWI

WISCONSIN REGIONAL WEATHER ROUNDUP
NATIONAL WEATHER SERVICE MILWAUKEE/SULLIVAN WI
700 PM CDT MON MAY 21 2018

NOTE: "FAIR" INDICATES FEW OR NO CLOUDS BELOW 12,000 FEET WITH NO
SIGNIFICANT WEATHER AND/OR OBSTRUCTIONS TO VISIBILITY.

WIZ001-002-006>008-014>016-023>028-220100-
NORTHWEST WISCONSIN

CITY           SKY/WX    TMP DP  RH WIND       PRES   REMARKS
SUPERIOR ARPT  CLOUDY    57  34  42 CALM      30.02F
6HR MIN TEMP:  56; 6HR MAX TEMP:  62;

ASHLAND        FAIR      56  41  57 N7        30.02S
6HR MIN TEMP:  56; 6HR MAX TEMP:  73;

HAYWARD        LGT RAIN  65  47  52 S7        30.03S
6HR MIN TEMP:  65; 6HR MAX TEMP:  73; 6HR PCP: TRACE;

SIREN          CLOUDY    68  46  45 SE5       30.01F
6HR MIN TEMP:  68; 6HR MAX TEMP:  72;

CUMBERLAND     CLOUDY    63  50  63 SE6       30.02S
RICE LAKE      CLOUDY    64  50  62 SE8       30.04S
6HR MIN TEMP:  64; 6HR MAX TEMP:  69;

CHETEK         CLOUDY    61  53  75 E6        30.03S
6HR MIN TEMP:  61; 6HR MAX TEMP:  68;

LADYSMITH      CLOUDY    59  51  75 E8        30.06S
6HR MIN TEMP:  59; 6HR MAX TEMP:  67;

EAU CLAIRE     CLOUDY    58  53  84 E7        30.02S
6HR MIN TEMP:  57; 6HR MAX TEMP:  61; 6HR PCP: TRACE;

MENOMONIE      CLOUDY    61  52  71 E8        30.02S
6HR MIN TEMP:  59; 6HR MAX TEMP:  62;

NEW RICHMOND   CLOUDY    61  50  67 SE6       30.02S
6HR MIN TEMP:  61; 6HR MAX TEMP:  68;

OSCEOLA        CLOUDY    64  53  67 SE7       30.03F
6HR MIN TEMP:  63; 6HR MAX TEMP:  70;

$$

WIZ003>005-009-010-017-018-220100-
NORTH CENTRAL WISCONSIN

CITY           SKY/WX    TMP DP  RH WIND       PRES   REMARKS
MANITOWISH WTR PTSUNNY   60  43  52 S10       30.05S
6HR MIN TEMP:  60; 6HR MAX TEMP:  72;

ARBOR VITAE    CLOUDY    59  49  69 S8        30.06S
6HR MIN TEMP:  59; 6HR MAX TEMP:  72;

WOODRUFF       CLOUDY    59  49  69 S8        30.06S
6HR MIN TEMP:  59; 6HR MAX TEMP:  72;

RHINELANDER    LGT RAIN  57  52  83 SE5       30.08F
6HR MIN TEMP:  57; 6HR MAX TEMP:  69; 6HR PCP: TRACE;

EAGLE RIVER    CLOUDY    58  44  59 S8        30.06F
6HR MIN TEMP:  58; 6HR MAX TEMP:  70;

LAND O LAKES   FAIR      62  39  42 S8        30.07F
6HR MIN TEMP:  62; 6HR MAX TEMP:  73;

PHILLIPS       CLOUDY    56  50  80 SE9       30.06S
6HR MIN TEMP:  56; 6HR MAX TEMP:  67;

TOMAHAWK       DRIZZLE   54  51  92 CALM      30.07F
6HR MIN TEMP:  54; 6HR MAX TEMP:  66;

MEDFORD        DRIZZLE   53  52  95 E7        30.04F
6HR MIN TEMP:  53; 6HR MAX TEMP:  57; 6HR PCP:  0.08;

MERRILL        LGT RAIN  54  52  95 E5        30.06F
6HR MIN TEMP:  55; 6HR MAX TEMP:  62; 6HR PCP:  0.05;

$$

WIZ029-030-035-036-043>047-220100-
CENTRAL WISCONSIN

CITY           SKY/WX    TMP DP  RH WIND       PRES   REMARKS
WAUSAU         LGT RAIN  54  52  93 E9        30.04F
6HR MIN TEMP:  54; 6HR MAX TEMP:  60; 6HR PCP:  0.16;

MOSINEE        CLOUDY    54  52  94 E6        30.06F
MARSHFIELD     CLOUDY    54  53  97 E12       30.03F
6HR MIN TEMP:  54; 6HR MAX TEMP:  55; 6HR PCP:  0.13;

STEVENS POINT  CLOUDY    52  52 100 E8        30.05F
6HR MIN TEMP:  52; 6HR MAX TEMP:  55; 6HR PCP:  0.26;

WAUPACA        CLOUDY    56  54  94 NE6       30.06F
6HR MIN TEMP:  55; 6HR MAX TEMP:  62; 6HR PCP:  0.06;

WAUTOMA        LGT RAIN  54  52  93 E10       30.05S
6HR MIN TEMP:  54; 6HR MAX TEMP:  57; 6HR PCP:  0.20;

WISC RAPIDS    CLOUDY    56  54  93 E7        30.04F
6HR MIN TEMP:  55; 6HR MAX TEMP:  57; 6HR PCP:  0.20;

CAMP DOUGLAS   CLOUDY    57  57 100 E7        30.01F
                                      6HR PCP:  0.13;

$$

WIZ011>013-019>022-031-037>040-048>050-220100-
NORTHEAST WISCONSIN

CITY           SKY/WX    TMP DP  RH WIND       PRES   REMARKS
ANTIGO         LGT RAIN  52  50  94 SE7       30.07F
6HR MIN TEMP:  52; 6HR MAX TEMP:  59;

SHAWANO        PTSUNNY   55  48  80 E8        30.07F
6HR MIN TEMP:  55; 6HR MAX TEMP:  64; 6HR PCP:  0.11;

OCONTO         CLOUDY    51  48  89 CALM      30.08F
6HR MIN TEMP:  51; 6HR MAX TEMP:  62; 6HR PCP:  0.09;

STURGEON BAY   LGT RAIN  51  48  89 E7        30.09F
6HR MIN TEMP:  51; 6HR MAX TEMP:  59; 6HR PCP:  0.09;

GREEN BAY      LGT RAIN  53  50  89 E9        30.08S
6HR MIN TEMP:  53; 6HR MAX TEMP:  61; 6HR PCP:  0.10;

MANITOWOC      LGT RAIN  50  48  93 E7        30.08F
6HR MIN TEMP:  50; 6HR MAX TEMP:  54; 6HR PCP:  0.11;

APPLETON       CLOUDY    52  50  93 E7        30.05F
CLINTONVILLE   CLOUDY    54  49  85 E5        30.07F
6HR MIN TEMP:  53; 6HR MAX TEMP:  60; 6HR PCP:  0.09;

OSHKOSH        CLOUDY    54  51  90 E8        30.05F
6HR MIN TEMP:  53; 6HR MAX TEMP:  55; 6HR PCP:  0.07;

$$

WIZ032>034-041-042-053>061-220100-
SOUTHWEST WISCONSIN

CITY           SKY/WX    TMP DP  RH WIND       PRES   REMARKS
LA CROSSE      CLOUDY    60  56  86 E3        30.00S
6HR MIN TEMP:  54; 6HR MAX TEMP:  60; 6HR PCP:  0.03;

SPARTA         CLOUDY    57  55  94 E6        30.02S
6HR MIN TEMP:  52; 6HR MAX TEMP:  57; 6HR PCP:  0.01;

VIROQUA        CLOUDY    58  58 100 E6        30.01S
6HR MIN TEMP:  53; 6HR MAX TEMP:  58; 6HR PCP:  0.01;

BOSCOBEL       CLOUDY    61  59  93 N3        29.99F
6HR MIN TEMP:  56; 6HR MAX TEMP:  61; 6HR PCP:  0.03;

PRAIRIE DU CHI CLOUDY    59  57  94 CALM      29.99S FOG
6HR MIN TEMP:  56; 6HR MAX TEMP:  60; 6HR PCP:  0.01;

PLATTEVILLE    CLOUDY    60  60 100 E6        29.99F
6HR MIN TEMP:  57; 6HR MAX TEMP:  60; 6HR PCP:  0.11;

$$

WIZ056-057-062-063-064-067-068-220100-
SOUTH CENTRAL WISCONSIN

CITY           SKY/WX    TMP DP  RH WIND       PRES   REMARKS
REEDSBURG      CLOUDY    56  56 100 E7        29.99F
6HR MIN TEMP:  54; 6HR MAX TEMP:  58; 6HR PCP:  0.21;

BARABOO/DELLS  DRIZZLE   56  54  95 E8        30.01F
6HR MIN TEMP:  55; 6HR MAX TEMP:  57; 6HR PCP:  0.46;

LONE ROCK      CLOUDY    60  60 100 E6        29.99S FOG
6HR MIN TEMP:  56; 6HR MAX TEMP:  61; 6HR PCP:  0.17;

MINERAL POINT  CLOUDY    61  61 100 E6        29.99S FOG
MADISON        CLOUDY    56  55  97 E9        30.00S
6HR MIN TEMP:  56; 6HR MAX TEMP:  59; 6HR PCP:  0.23;

MIDDLETON      CLOUDY    58  57  95 E8        30.01S
6HR MIN TEMP:  58; 6HR MAX TEMP:  61; 6HR PCP:  0.13;

WATERTOWN      CLOUDY    53  53 100 E7        30.02S FOG
6HR MIN TEMP:  53; 6HR MAX TEMP:  57; 6HR PCP:  0.19;

MONROE         CLOUDY    59  59 100 E5        29.98S FOG
JANESVILLE     CLOUDY    61  61 100 E10       29.98F
$$

WIZ051-052-058>065-066-070>072-220100-
SOUTHEAST WISCONSIN

CITY           SKY/WX    TMP DP  RH WIND       PRES   REMARKS
MILWAUKEE      FOG       49  47  93 N6        30.03S VSB 1/2
6HR MIN TEMP:  49; 6HR MAX TEMP:  54; 6HR PCP:  0.12;

WAUKESHA       CLOUDY    48  48 100 NE7       30.04S FOG
MILWAUKEE/TIMM CLOUDY    48  45  87 NE7       30.04F
RACINE         LGT RAIN  52  51  97 E8        30.03F FOG
6HR MIN TEMP:  50; 6HR MAX TEMP:  53; 6HR PCP:  0.33;

BURLINGTON     DRIZZLE   55  54  95 E6        30.01S
6HR MIN TEMP:  55; 6HR MAX TEMP:  58; 6HR PCP:  0.06;

KENOSHA        FOG       52  50  93 NE8       30.01S VSB 1/2
6HR MIN TEMP:  52; 6HR MAX TEMP:  57; 6HR PCP:  0.42;

FOND DU LAC    LGT RAIN  52  50  93 E9        30.05S FOG
6HR MIN TEMP:  52; 6HR MAX TEMP:  55; 6HR PCP:  0.15;

SHEBOYGAN      CLOUDY    49  48  97 NE8       30.06F FOG
6HR MIN TEMP:  49; 6HR MAX TEMP:  52; 6HR PCP:  0.22;

WEST BEND      CLOUDY    48  48 100 E10       30.05S FOG
JUNEAU         CLOUDY    51  50  95 E9        30.04S
6HR MIN TEMP:  51; 6HR MAX TEMP:  56; 6HR PCP:  0.25;

$$

LSZ147-162-220100-
LAKE SUPERIOR

STATION/POSITION TIME  TEMP    WIND        PRES    WAVE
                       AIR SEA DIR/SP/G            HT/PER
                 (UTC) (F)     (DEG/KT/KT) (MB)    (FT/S)
W MID LAKE BUOY  2350   41 36   30/  6/  8 1016.6F   0
DEVILS ISLAND    0000   48     100/  8/  9 1017.0F
SAXON HARBOR     2340   54      30/  3/  3 1015.9F
$$

LMZ867-665-643>646-220100-
LAKE MICHIGAN



USA.gov is the U.S. government's official web portal to all federal, state and local government web resources and services.